Flag for Ireland Weather past 2 weeks in Dublin, Ireland

Now
59 °F

Broken clouds.


Feels Like: 56 °F
Forecast: 50 / 65 °F
Wind: 14 mph from Southwest

Location: Dublin Airport

Current Time: Jul 31, 2015 at 10:29:58 AM

Latest Report: Jul 31, 2015 at 10:00 AM


Visibility: N/A

Pressure: 30.01 "Hg

Humidity: 63%

Dew point: 46 °F

Location of DublinLocation

Historic Weather in Dublin — Graph

°F

Dublin temperature yesterday

Maximum temperature yesterday: 61 °F (at 1:30 PM)
Minimum temperature yesterday: 45 °F (at 2:30 AM)
Average temperature yesterday: 53 °F

Past Weeks' High & Low Weather Summary

 TemperatureHumidityPressure
High70 °F (Jul 20, 2:00 PM)100% (Jul 16, 6:30 PM)30.15 "Hg (Jul 16, 6:30 PM)
Low43 °F (Jul 25, 3:00 AM)48% (Jul 25, 7:00 PM)29.30 "Hg (Jul 26, 5:00 PM)
Average56 °F80%29.81 "Hg
* Reported Jul 16 9:00 AM — Jul 31 9:30 AM, Dublin, Weather by CustomWeather, © 2015

Note: Actual official high and low records may vary slightly from our data, if they occured in-between our weather recording intervals... More about our weather records

Advertising

Dublin weather history for previous 24 hours

 ConditionsComfort  
Time TempWeatherWind HumidityBarometerVisibility
9:30 AM
Fri, Jul 31
59 °FBroken clouds.15 mph63%30.01 "HgN/A
9:00 AM57 °FBroken clouds.13 mph67%30.01 "HgN/A
8:30 AM57 °FBroken clouds.10 mph72%30.04 "HgN/A
8:00 AM55 °FBroken clouds.10 mph72%30.04 "HgN/A
7:30 AM54 °FPartly sunny.10 mph77%30.04 "HgN/A
7:00 AM54 °FPartly sunny.8 mph77%30.04 "HgN/A
6:30 AM52 °FPassing clouds.7 mph82%30.04 "HgN/A
6:00 AM54 °FPassing clouds.7 mph77%30.04 "HgN/A
5:30 AM52 °FPassing clouds.7 mph82%30.07 "HgN/A
5:00 AM52 °FPassing clouds.8 mph82%30.07 "HgN/A
4:30 AM52 °FPassing clouds.7 mph88%30.07 "HgN/A
4:00 AM52 °FPassing clouds.8 mph88%30.07 "HgN/A
3:30 AM52 °FPassing clouds.7 mph88%30.09 "HgN/A
3:00 AM52 °FPassing clouds.8 mph88%30.09 "HgN/A
2:30 AM52 °FPassing clouds.8 mph88%30.09 "HgN/A
2:00 AM54 °FPassing clouds.8 mph82%30.09 "HgN/A
1:30 AM54 °FPassing clouds.8 mph82%30.09 "HgN/A
1:00 AM54 °FPassing clouds.9 mph82%30.09 "HgN/A
12:30 AM54 °FPassing clouds.12 mph82%30.12 "HgN/A
12:00 AM54 °FPassing clouds.9 mph88%30.12 "HgN/A
11:30 PM
Thu, Jul 30
54 °FPassing clouds.9 mph88%30.12 "HgN/A
11:00 PM54 °FPassing clouds.6 mph94%30.12 "HgN/A
10:30 PM54 °FPassing clouds.6 mph88%30.12 "HgN/A
10:00 PM54 °FBroken clouds.5 mph88%30.12 "HgN/A
9:30 PM54 °FBroken clouds.6 mph88%30.12 "HgN/A
9:00 PM54 °FDrizzle. Broken clouds.9 mph88%30.12 "Hg3 mi
8:30 PM54 °FSprinkles. Broken clouds.10 mph94%30.12 "HgN/A
8:00 PM57 °FScattered showers. Broken clouds.9 mph72%30.12 "HgN/A
7:30 PM57 °FScattered showers. Broken clouds.10 mph72%30.12 "HgN/A
7:00 PM57 °FBroken clouds.13 mph72%30.12 "HgN/A
6:30 PM59 °FPartly sunny.12 mph63%30.12 "HgN/A
6:00 PM59 °FBroken clouds.12 mph63%30.12 "HgN/A
5:30 PM59 °FBroken clouds.10 mph63%30.12 "HgN/A
5:00 PM59 °FBroken clouds.7 mph59%30.15 "HgN/A
4:30 PM61 °FPartly sunny.8 mph55%30.15 "HgN/A
4:00 PM61 °FBroken clouds.9 mph55%30.15 "HgN/A
3:30 PM59 °FPartly sunny.9 mph63%30.15 "HgN/A
3:00 PM59 °FPartly sunny.8 mph59%30.15 "HgN/A
2:30 PM61 °FPartly sunny.8 mph52%30.15 "HgN/A
2:00 PM59 °FPartly sunny.6 mph55%30.15 "HgN/A
1:30 PM61 °FPartly sunny.10 mph55%30.15 "HgN/A
1:00 PM59 °FBroken clouds.10 mph55%30.15 "HgN/A
12:30 PM57 °FBroken clouds.13 mph59%30.15 "HgN/A
12:00 PM57 °FBroken clouds.12 mph59%30.15 "HgN/A
11:30 AM57 °FBroken clouds.10 mph59%30.15 "HgN/A
11:00 AM57 °FBroken clouds.9 mph63%30.15 "HgN/A
10:30 AM55 °FBroken clouds.8 mph67%30.15 "HgN/A
10:00 AM55 °FScattered clouds.9 mph67%30.15 "HgN/A
Weather by CustomWeather, © 2015

See weather overviewHow to use our weather pages